Flag for U.S.A. Weather past 2 weeks in Amarillo, Texas, U.S.A.

Now
50 °F

Clear.


Feels Like: 46 °F
Forecast: 51 / 75 °F
Wind: 12 mph from South

Location: Amarillo International Airport


UV Index: 0 (Low)

Visibility: 10 mi


Pressure: 30.02 "Hg

Humidity: 74%

Dew point: 42 °F

Location of AmarilloLocation

Historic Weather in Amarillo

°F

Amarillo temperature yesterday

Maximum temperature yesterday: 74 °F (at 5:53 PM)
Minimum temperature yesterday: 36 °F (at 12:53 AM)
Average temperature yesterday: 55 °F

Past Weeks' High & Low Weather Summary

 TemperatureHumidityPressure
High88 °F (Apr 9, 3:53 PM)97% (Apr 6, 6:53 AM)30.34 "Hg (Apr 6, 6:53 AM)
Low26 °F (Apr 15, 4:53 AM)4% (Apr 9, 5:53 PM)29.58 "Hg (Apr 13, 5:53 AM)
Average54 °F43%29.98 "Hg
* Reported Apr 4 3:53 AM — Apr 19 3:53 AM, Amarillo, Weather by CustomWeather, © 2014

Note: Actual official high and low records may vary slightly from our data, if they occured in-between our weather recording intervals... More about our weather records

Advertising

Historic Weather Conditions — Data for Previous 24 hours

 ConditionsComfort  
Time TempWeatherWind HumidityBarometerVisibility
3:53 AM
Apr 19
52 °FClear.21 mph69%29.97 "Hg10 mi
2:53 AM54 °FClear.21 mph67%29.98 "Hg10 mi
1:53 AM56 °FClear.24 mph62%29.98 "Hg10 mi
12:53 AM57 °FClear.18 mph58%29.98 "Hg10 mi
11:53 PM
Apr 18
60 °FClear.21 mph53%30.00 "Hg10 mi
10:53 PM61 °FClear.20 mph52%30.01 "Hg10 mi
9:53 PM63 °FClear.23 mph50%30.01 "Hg10 mi
8:53 PM65 °FSunny.16 mph45%30.00 "Hg10 mi
7:53 PM68 °FSunny.22 mph40%29.98 "Hg10 mi
6:53 PM70 °FSunny.24 mph37%29.98 "Hg10 mi
5:53 PM74 °FSunny.24 mph32%29.98 "Hg10 mi
4:53 PM73 °FSunny.28 mph32%30.00 "Hg10 mi
3:53 PM72 °FSunny.18 mph34%30.03 "Hg10 mi
2:53 PM70 °FSunny.18 mph38%30.07 "Hg10 mi
1:53 PM68 °FSunny.21 mph39%30.11 "Hg10 mi
12:53 PM64 °FPassing clouds.16 mph41%30.15 "Hg10 mi
11:53 AM58 °FSunny.12 mph51%30.18 "Hg10 mi
10:53 AM50 °FPassing clouds.12 mph68%30.21 "Hg10 mi
9:53 AM46 °FLow clouds.13 mph79%30.22 "Hg10 mi
8:53 AM43 °FLow clouds.8 mph86%30.21 "Hg9 mi
7:53 AM42 °FOvercast.8 mph79%30.20 "Hg9 mi
6:53 AM39 °FLow clouds.9 mph82%30.19 "Hg9 mi
6:01 AM39 °FPassing clouds.9 mph82%30.22 "Hg9 mi
Weather by CustomWeather, © 2014

See weather overview